Location: Cornospital
(48.0620°N, 3.3837°W)
Time: 14:50:26
(UTC+00:00)

FALCON 9 DEB - Pass Details

Date: 17 June 2021
Orbit: 422 x 432 km, 53.0° (Epoch: 30 July)

Event Time Altitude Azimuth Distance (km) Brightness Sun altitude
Rises 22:06:08 0° 244° (WSW) 2,394 6.9 -12.9°
Reaches altitude 10° 22:08:14 10° 245° (WSW) 1,527 5.9 -13.1°
Maximum altitude 22:11:40 84° 332° (NNW) 437 3.1 -13.4°
Drops below altitude 10° 22:15:06 10° 63° (ENE) 1,526 5.9 -13.7°
Sets 22:17:13 0° 64° (ENE) 2,392 6.9 -13.8°
